Location: ?????
(60.6661°N, 46.7491°E)
Time: 18:24:10
(UTC+00:00)

Daily predictions for brighter satellites

Satellite Brightness Start Highest point End
(mag) Time Altitude Azimuth Time Altitude Azimuth Time Altitude Azimuth
ATLAS 5 CENTAUR R/B 1.5 13:13:47 10° WSW 13:16:05 86° SSE 13:21:13 10° E
Cosmos 1709 Rocket 4.2 13:11:34 10° SSE 13:17:25 50° E 13:23:19 10° NNE
SeaSat 1 3.7 13:16:04 10° NE 13:20:21 30° NNW 13:24:36 10° W
FENGYUN 3A 4.3 13:16:05 10° S 13:21:24 61° WSW 13:26:46 10° NNW
USA 267 4.3 13:17:58 10° E 13:23:52 35° SE 13:29:45 10° SSW
COSMO-SKYMED 1 4.5 13:24:18 10° ENE 13:25:28 11° E 13:26:37 10° E
NOSS 0 Rocket 4.0 13:19:23 10° NW 13:25:39 67° NE 13:31:52 10° ESE
SL-16 R/B 3.4 13:20:25 10° NNE 13:26:19 46° NW 13:32:13 10° SW
SL-08 ROCKET BODY 4.4 13:20:27 10° S 13:26:19 73° E 13:32:10 10° NNE
Cosmos 1461 3.5 13:22:26 10° WNW 13:26:37 65° SW 13:30:58 10° SE
SL-16 R/B 2.8 13:21:22 10° NW 13:26:39 37° NNE 13:31:55 10° E
Cosmos 1606 Rocket 3.6 13:24:57 10° NNW 13:29:21 86° WSW 13:33:42 10° S
Cosmos 1340 Rocket 3.7 13:26:32 10° N 13:29:55 26° ENE 13:33:19 10° ESE
Cosmos 1908 3.2 13:26:46 10° N 13:30:39 62° ENE 13:34:29 10° SSE
Cosmos 1726 Rocket 3.5 13:27:44 10° NNW 13:32:10 85° ENE 13:36:32 10° SSE
Cosmos 1300 3.5 13:28:51 10° N 13:32:16 30° ENE 13:35:40 10° SE
Cosmos 1674 3.7 13:29:44 10° SSE 13:32:51 26° E 13:35:59 10° NNE
deb Kosmos-1763 4.4 13:29:37 10° SW 13:33:14 63° NW 13:36:52 10° NNE
Okean-O 3.0 13:32:13 10° SE 13:36:26 43° ENE 13:40:39 10° N
CSL-04 Rocket 4.4 13:32:16 10° ESE 13:37:09 33° NE 13:42:06 10° NNW
Cosmos 1726 2.3 13:33:33 10° NNW 13:37:14 77° WSW 13:40:53 10° S
Cosmos 1953 3.4 13:33:15 10° NNW 13:37:14 51° W 13:41:10 10° S
Cosmos 494 Rocket 4.1 13:33:47 10° NNW 13:38:50 52° NE 13:43:50 10° SE
NOSS 2-1 (C) 3.8 13:34:42 10° WNW 13:38:59 80° NNE 13:44:50 10° ESE
CZ-4B R/B 1.1 13:36:15 10° NNE 13:39:23 71° ESE 13:42:27 10° S
CZ-4C R/B 3.9 13:36:15 10° N 13:39:40 49° WNW 13:43:08 10° SW
Cosmos 2322 4.2 13:34:07 10° NW 13:39:45 66° WSW 13:45:22 10° SSE
Landsat 5 4.0 13:35:27 10° NNE 13:39:58 70° WNW 13:44:29 10° SSW
ATLAS 5 CENTAUR R/B 3.1 13:37:22 10° S 13:40:47 22° ESE 13:44:28 10° ENE
Okean O Rocket 2.3 13:36:41 10° S 13:41:05 60° WSW 13:45:31 10° NNW
NOSS 2-1 (D) 3.9 13:38:30 10° WNW 13:42:48 82° NNE 13:48:42 10° ESE
Cosmos 1818 3.7 13:38:23 10° SW 13:43:49 72° SE 13:49:03 11° ENE
Helios 1A Rocket 3.5 13:40:21 10° S 13:44:21 63° WSW 13:48:25 10° NNW
Cosmos 1536 Rocket 4.0 13:40:15 10° SSW 13:44:35 64° WNW 13:48:54 10° N
SL-08 R/B 4.2 13:40:14 10° NNE 13:44:42 48° WNW 13:49:07 10° SW
Cosmos 1025 Rocket 3.5 13:41:17 10° SSW 13:45:33 64° WNW 13:49:50 10° N
Ariane Rocket 4.1 13:42:31 10° E 13:46:24 23° NE 13:50:18 10° N
H-2A R/B 3.5 13:44:56 10° ENE 13:48:05 17° NE 13:51:17 10° N
Cosmos 1455 3.8 13:46:05 10° NNE 13:48:33 16° NE 13:51:01 10° E
Cosmos 1980 3.7 13:43:26 10° NW 13:49:07 64° NE 13:54:47 10° SE
Cosmos 2251 Rocket 4.4 13:44:50 10° NNW 13:49:30 31° NNE 13:54:11 10° E
Cosmos 1271 Rocket 4.0 13:48:57 10° SE 13:51:46 21° E 13:54:15 12° NE
Cosmos 2360 Rocket 3.8 13:48:49 10° NW 13:54:02 39° WSW 13:59:14 10° S
Cosmos 1745 Rocket 4.3 13:49:57 10° SSW 13:56:04 70° WNW 14:02:14 10° NNE
Cosmos 1939 Rocket 3.9 13:53:02 10° ESE 13:56:14 24° NE 13:59:30 10° N
CORIOLIS 4.1 13:51:22 10° SSE 13:56:45 85° ENE 14:02:09 10° NNW
Alouette 2 Rocket 3.7 13:53:41 10° NNW 13:57:40 76° ENE 14:03:17 10° SSE
H-2A R/B 3.5 13:54:42 10° N 13:58:45 37° WNW 14:02:52 10° SW
NOAA 12 4.0 13:53:57 10° SSE 13:59:11 76° ENE 14:04:28 10° NNW
ATLAS CENTAUR R/B 1.7 13:55:17 10° WNW 13:59:40 52° N 14:03:08 14° E
COSMOS 2428 3.1 13:54:31 10° NW 14:00:16 73° SW 14:06:01 10° SSE
Cosmos 1898 Rocket 3.6 13:56:31 10° SSW 14:01:47 64° ESE 14:07:01 10° NE
IRS-1C Rocket 4.3 13:57:04 10° SSE 14:02:20 81° WSW 14:07:40 10° NNW
Cosmos 2219 Rocket 2.6 13:56:59 10° NW 14:02:41 70° SW 14:08:20 10° SSE
Cosmos 1626 3.4 14:01:52 10° SE 14:04:42 21° E 14:06:26 15° NE
Cosmos 2228 4.1 14:01:17 10° NNW 14:05:32 49° W 14:09:42 10° S
SMAP 3.3 14:01:20 10° SSE 14:05:59 76° WSW 14:10:41 10° NNW
Cosmos 2184 Rocket 4.2 14:03:36 10° SSE 14:09:30 49° E 14:15:24 10° NNE
YAOGAN 6 2.7 14:06:48 10° SSE 14:10:25 56° ENE 14:14:03 10° N
Cosmos 1242 Rocket 3.7 14:07:37 10° SE 14:10:26 23° E 14:11:50 18° ENE
SJ 16-02 1.3 14:06:02 10° SSW 14:10:27 74° ESE 14:14:40 11° NNE
Cosmos 1937 Rocket 3.6 14:06:14 10° SSW 14:11:24 59° ESE 14:16:20 12° NE
NOAA 11 4.4 14:07:34 10° SE 14:12:47 46° ENE 14:18:02 10° NNW
H-2A R/B 3.3 14:10:11 10° S 14:14:01 63° WSW 14:17:54 10° NNW
Cosmos 1689 Rocket 2.2 14:13:19 10° NNE 14:16:17 74° WNW 14:19:13 10° SSW
Cosmos 1943 4.1 14:11:44 10° NW 14:16:48 32° NNE 14:20:19 17° ENE
Cosmos 2154 Rocket 4.4 14:11:40 10° SSE 14:17:25 40° E 14:23:10 10° NNE
CZ-4 R/B 1.5 14:17:03 10° SE 14:21:01 54° ENE 14:25:05 10° N
Cosmos 1833 Rocket 3.7 14:19:41 10° W 14:24:58 39° NNW 14:29:28 14° NE
COBE Rocket 4.0 14:21:09 10° NNE 14:26:15 88° ESE 14:31:26 10° SSW
COSMOS 2487 2.3 14:23:20 10° SSW 14:26:49 80° ESE 14:29:16 19° NE
Cosmos 1892 Rocket 3.5 14:22:26 10° S 14:26:56 82° ESE 14:31:25 10° NNE
Cosmos 1812 Rocket 3.5 14:22:46 10° NNW 14:27:15 69° ENE 14:31:43 10° SSE
Cosmos 1125 Rocket 4.5 14:23:58 10° SSE 14:28:13 26° ESE 14:30:18 20° ENE
NOSS 2-1 (E) 4.2 14:24:50 10° WNW 14:29:23 78° SSW 14:35:43 10° SE
COSMOS 2406 4.3 14:24:26 10° W 14:29:34 33° NNW 14:33:34 15° NE
CZ-4C R/B 3.6 14:26:20 10° WNW 14:32:52 55° SW 14:40:31 10° SSE
NOSS 3-3 (A) 4.3 14:27:32 10° W 14:34:10 71° N 14:39:40 20° E
NOSS 3-3 (C) 4.3 14:27:38 10° W 14:34:16 71° N 14:39:46 20° E
ARGOS 4.1 14:32:40 19° E 14:35:08 27° NE 14:39:37 10° N
Cosmos 1269 Rocket 4.0 14:30:30 10° NNW 14:35:50 88° NE 14:41:09 10° SSE
SL-27 R/B 4.2 14:33:52 10° WSW 14:37:06 29° NW 14:40:02 12° NNE
Cosmos 2074 Rocket 4.0 14:34:14 10° S 14:40:31 74° E 14:46:49 10° NNE
Cosmos 839 Rocket 4.0 14:34:19 10° WSW 14:40:31 82° NNW 14:45:11 20° NE
Cosmos 2221 4.1 14:38:08 10° N 14:40:06 17° NNE 14:40:06 17° NNE
Envisat 3.4 14:36:25 10° S 14:41:29 66° WSW 14:46:35 10° NNW
Okean 1-7 Rocket 3.6 14:38:29 10° SSW 14:42:54 81° WNW 14:47:22 10° NNE
YAOGAN 1 2.5 14:39:03 10° SSE 14:43:21 68° ENE 14:47:41 10° NNW
Cosmos 2084 3.6 14:40:28 10° W 14:44:58 71° NNW 14:47:13 28° ENE
Cosmos 2082 Rocket 3.2 14:41:22 10° W 14:46:39 39° NNW 14:50:39 16° NE
CSL-04 Debris 4.1 14:41:39 10° SSE 14:47:01 75° ENE 14:52:27 10° NNW
Meteor 2-10 Rocket 3.7 14:42:22 10° NNW 14:47:48 52° ENE 14:52:59 10° SE
ADEOS Rocket 4.0 14:46:07 20° NE 14:48:29 25° E 14:53:55 10° SE
Cosmos-2242 3.1 14:44:33 10° N 14:48:51 51° ENE 14:53:04 10° SE
Cosmos 2333 Rocket 3.7 14:43:39 10° NW 14:48:57 39° WSW 14:54:11 10° S
Cosmos 2237 Rocket 2.4 14:45:55 10° NW 14:51:33 73° SW 14:57:10 10° SSE
Nadezhda 3 Rocket 4.1 14:45:56 10° NNW 14:52:12 81° W 14:58:30 10° S
Cosmos 407 Rocket 4.4 14:49:02 10° NNW 14:53:47 30° NNE 14:55:16 26° ENE
PSLV R/B 4.1 14:52:48 10° NNE 14:56:52 72° WNW 15:00:56 10° SSW
SeaSat 1 3.9 14:54:51 18° NE 14:56:53 24° N 15:00:46 10° NW
Cosmos 372 Rocket 4.0 14:53:09 10° SSW 14:58:12 60° ESE 15:01:18 24° NE
Cosmos 1727 Rocket 4.2 14:56:28 10° N 15:02:29 47° ENE 15:08:27 10° SE
Cosmos 1602 Rocket 3.5 14:58:10 10° S 15:02:30 61° E 15:05:40 18° NNE
Meteor 1-24 Rocket 3.5 14:57:17 10° SSW 15:02:37 84° ESE 15:08:06 10° NNE
COSMO-SKYMED 1 2.7 15:00:04 22° NNE 15:02:40 52° E 15:06:55 10° S
CZ-2D R/B 3.1 14:59:22 10° SSE 15:03:12 74° ENE 15:07:04 10° NNW
Cosmos 990 Rocket 4.4 14:58:04 10° SW 15:03:17 63° NW 15:07:21 17° NNE
Cosmos 1340 Rocket 3.4 15:02:48 10° NNW 15:06:41 56° W 15:10:33 10° S
USA 267 3.5 15:03:58 26° E 15:07:46 59° SSE 15:14:13 10° WSW
Cosmos 1300 3.9 15:04:26 10° NNW 15:08:06 45° W 15:11:45 10° SSW
Cosmos 1674 3.6 15:04:35 10° SW 15:08:12 48° WNW 15:11:50 10° N
Timation 2 Rocket 4.2 15:02:42 10° S 15:08:36 50° ESE 15:11:40 28° ENE
Meteor 2-5 Rocket 3.9 15:03:23 10° SSW 15:08:56 74° WNW 15:14:36 10° NNE
Cosmos 1842 Rocket 4.4 15:05:36 10° N 15:08:56 31° NE 15:08:56 31° NE
CZ-4B R/B 4.0 15:09:18 10° NNW 15:11:23 17° NW 15:13:26 10° W
SL-16 R/B 2.1 15:05:46 10° NW 15:11:32 81° NE 15:15:57 17° SE
Okean-O 4.1 15:08:48 10° SSW 15:13:00 40° W 15:17:12 10° NNW
SJ-6B 4.4 15:16:27 21° NNE 15:16:27 21° NNE 15:18:05 10° N
Cosmos 2298 Rocket 3.9 15:11:20 10° SSW 15:16:39 78° ESE 15:19:42 26° NE
CSL-04 Rocket 3.9 15:11:37 10° SSE 15:17:09 76° WSW 15:22:45 10° NNW
Cosmos 2341 Rocket 4.0 15:12:58 10° S 15:19:11 58° E 15:25:25 10° NNE
Cosmos 1758 Rocket 3.9 15:15:07 10° SSE 15:18:40 42° ESE 15:18:40 42° ESE
Resurs 01 Rocket 3.4 15:22:55 18° NNE 15:22:55 18° NNE 15:24:40 10° N
Cosmos 2219 3.8 15:18:09 10° S 15:22:56 33° ESE 15:22:56 33° ESE
Cosmos 1603 3.9 15:17:40 10° NW 15:23:16 50° NE 15:24:52 39° E
SL-14 R/B 3.3 15:19:26 10° SSW 15:23:26 79° WNW 15:25:51 23° N
Cosmos 1833 4.2 15:18:31 10° SW 15:24:15 82° NW 15:27:32 27° NE
ATLAS 5 CENTAUR R/B 1.7 15:20:10 10° SW 15:24:38 71° SSE 15:26:01 46° E
Ariane Rocket 2.9 15:19:39 10° SSE 15:24:43 73° ENE 15:29:49 10° NNW
Cosmos 1455 2.0 15:21:00 10° NNW 15:24:53 78° ENE 15:26:28 34° SSE
SL-8 Rocket 4.1 15:19:28 10° SSE 15:25:31 50° E 15:31:34 10° NNE
Cosmos 1626 Rocket 3.6 15:21:28 10° SSW 15:25:49 77° WNW 15:29:18 16° NNE
H-2A R/B 2.1 15:25:26 42° E 15:26:31 49° ENE 15:31:27 10° NNW
SKYMED 3 4.4 15:24:10 26° NNE 15:26:35 78° ESE 15:30:56 10° SSW
Cosmos 1271 Rocket 3.0 15:23:42 10° SSW 15:27:25 63° WNW 15:29:25 26° N
Cosmos 1818 3.8 15:22:12 10° W 15:27:38 61° NNW 15:29:41 37° NE
Cosmos 1939 Rocket 3.1 15:26:58 10° S 15:30:52 67° WSW 15:34:52 10° NNW
Cosmos 2251 Rocket 3.4 15:27:13 10° NNW 15:32:32 83° NE 15:35:20 29° SE
SL-24 R/B 4.4 15:35:52 53° E 15:36:20 55° ENE 15:41:22 10° NNW
CZ-2C R/B 3.3 15:36:25 46° E 15:37:19 51° ENE 15:42:47 10° NNW
Cosmos 1607 4.0 15:31:49 10° SSW 15:37:47 56° SE 15:39:22 44° E
ATLAS CENTAUR R/B 1.3 15:34:31 10° WNW 15:38:52 81° SSW 15:39:20 68° SSE
Cosmos 1626 2.6 15:35:59 10° SSW 15:39:39 60° WNW 15:41:02 34° N
Cosmos 2297 Rocket 3.3 15:35:22 10° S 15:38:35 27° SE 15:38:35 27° SE
ATLAS CENTAUR R/B 4.4 15:33:53 10° SW 15:40:41 66° SSE 15:49:51 30° E
USA 32 3.9 15:39:49 10° S 15:45:04 90° SW 15:50:21 10° N
Cosmos 1242 Rocket 3.3 15:41:38 10° SW 15:45:05 51° WNW 15:45:55 40° NNW
Cosmos 1825 Rocket 4.1 15:41:11 10° S 15:44:16 43° SSE 15:44:16 43° SSE
SJ 16-02 3.0 15:45:32 10° WSW 15:49:29 30° NW 15:51:40 20° N
SL-24 R/B - RUBIN 2 4.4 15:44:29 10° WSW 15:50:15 75° NNW 15:52:17 45° NE
Cosmos 2150 Rocket 4.1 15:45:19 10° SW 15:50:29 75° NW 15:52:32 37° NNE
SKYMED 2 3.7 15:48:38 29° N 15:50:48 71° WNW 15:55:07 10° SSW
Meteor 2-17 Rocket 4.4 15:44:47 10° SSW 15:50:58 87° WNW 15:57:09 10° NNE
Cosmos 2227 Rocket 3.4 15:47:07 10° S 15:49:54 25° SSE 15:49:54 25° SSE
SPOT 3 Rocket 3.5 15:52:29 59° ENE 15:52:30 59° ENE 15:57:35 10° NNW
Cosmos 1937 Rocket 4.5 15:48:34 10° WSW 15:53:37 44° NW 15:56:31 23° NNE
Cosmos 2218 Rocket 3.9 15:47:54 10° S 15:54:08 63° E 16:00:29 10° NNE
CZ-4 R/B 3.5 15:52:45 10° SSW 15:56:19 29° W 15:59:57 10° NNW
Cosmos 1943 3.2 15:56:15 10° NW 16:01:51 61° NE 16:02:08 60° NE
Cosmos 2154 Rocket 4.5 15:56:34 10° SSW 16:02:47 61° WNW 16:08:59 10° N
Cosmos 1356 Rocket 4.3 16:00:33 10° NNW 16:03:09 39° NNW 16:03:09 39° NNW
Meteor 2-2 Rocket 4.3 15:58:34 10° NNW 16:04:35 66° ENE 16:05:15 61° ESE
Cosmos 864 Rocket 4.3 15:59:21 10° S 16:05:25 67° E 16:11:32 10° NNE
Cosmos 1125 Rocket 3.4 16:04:35 10° SW 16:09:49 83° WNW 16:10:37 64° NNE
Cosmos 1833 Rocket 3.9 16:05:23 10° WNW 16:10:18 29° N 16:11:10 28° NNE
Cosmos 2123 Rocket 4.2 16:05:03 10° N 16:10:36 50° NE 16:10:36 50° NE
Cosmos 614 Rocket 4.2 16:08:57 10° NNW 16:13:27 58° N 16:13:27 58° N
ARGOS 3.0 16:14:10 68° SSE 16:14:53 87° ENE 16:20:20 10° NNW
COSMOS 2406 4.3 16:10:20 10° NW 16:15:22 31° N 16:15:38 31° NNE
Cosmos 2221 4.2 16:15:10 10° NNW 16:16:59 25° N 16:16:59 25° N
Cosmos 1140 Rocket 4.1 16:16:52 10° NNW 16:20:57 46° N 16:20:57 46° N
Cosmos 1959 Rocket 4.3 16:17:37 10° S 16:23:48 87° ESE 16:29:59 10° NNE
Cosmos 2084 4.2 16:20:20 10° WNW 16:23:46 51° NW 16:23:46 51° NW
NOSS 3-3 (A) 4.3 16:18:37 10° WNW 16:25:36 89° NNE 16:27:07 61° ESE
NOSS 3-3 (C) 4.3 16:18:43 10° WNW 16:25:41 89° NNE 16:27:13 61° ESE
Cosmos 1000 Rocket 4.3 16:19:56 10° NNW 16:26:09 83° ENE 16:26:49 71° SE
Meteor 1-27 4.2 16:21:15 10° NNW 16:26:51 77° WSW 16:27:59 57° S
Cosmos 1190 Rocket 4.4 16:23:43 10° NNW 16:27:55 53° N 16:27:55 53° N
Cosmos 2082 Rocket 3.4 16:27:14 10° WNW 16:32:08 29° N 16:32:30 29° N
Cosmos 2366 rocket 3.9 16:26:27 10° SSW 16:32:41 87° WNW 16:39:02 10° NNE
Terra 4.3 16:36:29 12° N 16:36:29 12° N 16:36:57 10° N
SeaSat 1 3.8 16:34:37 29° N 16:34:37 29° N 16:37:50 10° NW
ADEOS Rocket 3.0 16:33:00 50° NNE 16:34:52 82° ESE 16:41:44 10° SSW
Cosmos 967 Rocket 4.4 16:28:32 10° WNW 16:35:04 76° NNE 16:35:16 75° NE
Cosmos 407 Rocket 3.9 16:31:10 10° NNW 16:35:29 58° NNW 16:35:29 58° NNW
COSMO-SKYMED 1 4.1 16:37:17 27° NNW 16:38:44 34° WNW 16:42:39 10° WSW
Cosmos 839 Rocket 4.4 16:35:03 10° W 16:41:08 56° N 16:41:48 53° NNE
USA 267 3.2 16:51:18 67° S 16:51:20 67° S 16:57:52 10° W
SL-16 R/B 3.7 16:50:16 10° NW 16:55:14 32° WSW 16:57:53 21° SSW
Timation 2 Rocket 4.2 16:49:50 10° WSW 16:56:02 65° NW 16:56:40 61° N
Resurs 01 Rocket 3.9 17:00:29 18° NNW 17:00:29 18° NNW 17:01:41 10° NNW
H-2A R/B 3.1 17:06:03 41° W 17:06:07 41° W 17:10:58 10° NNW
Cosmos 2219 4.1 17:01:16 10° SW 17:04:54 42° SW 17:04:54 42° SW
Cosmos 1603 4.3 17:01:59 10° NW 17:06:47 54° W 17:06:47 54° W
ATLAS 5 CENTAUR R/B 3.2 17:04:43 10° W 17:07:33 37° WNW 17:07:33 37° WNW
ATLAS CENTAUR R/B 4.0 17:13:57 10° WNW 17:15:33 18° W 17:15:33 18° W
CZ-2C R/B 4.1 17:17:28 45° W 17:17:28 45° W 17:22:44 10° NNW
Cosmos 2297 Rocket 3.9 17:18:18 10° SW 17:20:27 24° SW 17:20:27 24° SW
SJ 16-02 4.1 17:26:54 10° NW 17:28:40 14° NNW 17:28:40 14° NNW
Cosmos 2227 Rocket 4.2 17:30:16 10° SW 17:31:48 19° SW 17:31:48 19° SW
Cosmos 2082 Rocket 4.3 18:12:17 10° NW 18:14:21 21° NNW 18:14:21 21° NNW
ADEOS Rocket 4.4 18:14:38 10° NNE 18:20:03 35° NW 18:25:57 10° WSW
CENTAUR R/B 4.3 23:08:41 33° ENE 23:08:41 33° ENE 23:12:54 10° E
Cosmos 1943 Rocket 4.4 23:44:52 21° NE 23:44:52 21° NE 23:46:40 10° NE
